Погода в Тесове

Украина / Ровненская область     50°30′29″N   26°37′45″E
темп.,
°C
ветер,
м/с
пор.,
м/с
влажн.,
%
обл.,
%
осадки,
мм/ч
давл.,
гПа
погр.,
м
18 апреля, вс
вс1800:00+4з2296100 0.0 102066
03:00+3зсз229616 0.0 102042
06:00+2зсз229819 0.0 102035
09:00+6сз348529 0.0 1019277
12:00+11сз336366 0.0 1018881
15:00+12ссз3463100 0.0 10181039
18:00+11ссз2277100 0.0 1017129
21:00+9всв1184100 0.1 101720
19 апреля, пн
пн1900:00+7всв3698100 0.1 1018140
03:00+7в4795100 0.4 1018267
06:00+5всв479391 0.1 1018202
09:00+7всв4675100 0.1 1018353
12:00+11в44579 0.0 10171252
15:00+12св4452100 0.0 10161512
18:00+10св6871100 0.0 1016611
21:00+9всв4974100 0.0 1016337
20 апреля, вт
вт2000:00+6св368328 0.0 1016126
03:00+4св359145 0.0 101589
06:00+3св379793 0.0 1014153
09:00+7св468190 0.1 1014397
12:00+8св4574100 0.4 1014959
15:00+10с565977 0.6 10121464
18:00+10ссв466598 0.2 10111017
21:00+7св2273100 0.3 101221
21 апреля, ср
ср2100:00+6зсз228397 0.0 101228
03:00+5з3388100 0.0 101253
06:00+4з3587100 0.0 101296
09:00+8з577887 0.1 1012465
12:00+12з676032 1.3 10101336
15:00+13з685392 2.7 10101984
18:00+13з5758100 1.0 10111281
21:00+8зюз33775 1.4 101243
22 апреля, чт
чт2200:00+7юз378553 0.0 1013110
03:00+6юз410935 0.0 1013224
06:00+5юз499216 0.0 1013182
09:00+10юз587536 0.0 1014434
12:00+13з6768100 0.3 10141253
15:00+8з4790100 1.1 1016423
18:00+11з3468100 0.1 10151037
21:00+9юз227588 0.2 101623